NOAA-18
1 28654U 05018A 18158.54271168 -.00000007 00000-0 21429-4 0 9996
2 28654 099.1454 193.7993 0014963 151.0277 209.1727 14.12377631672329
CO-58
1 28895U 05043F 18158.36298702 .00000137 00000-0 35038-4 0 9998
2 28895 097.9080 310.2173 0018280 100.1464 260.1802 14.63551010672201
Falconsat-3
1 30776U 07006E 18158.57659911 .00002422 00000-0 72221-4 0 9990
2 30776 035.4365 327.9280 0003973 297.1845 062.8476 15.34509913622845
CO-65
1 32785U 08021C 18158.49970467 .00000252 00000-0 32978-4 0 9997
2 32785 097.5472 171.1404 0014681 072.8787 287.4037 14.88126449547664
AAUSAT2
1 32788U 08021F 18158.51292410 .00000252 00000-0 28447-4 0 9994
2 32788 097.5221 185.4217 0012609 028.5321 331.6587 14.94351833548633
DO-64
1 32789U 08021G 18158.61111571 .00001127 00000-0 81247-4 0 9993
2 32789 097.5129 213.6633 0011503 338.5294 021.5450 15.06068395550248
CO-66
1 32791U 08021J 18158.46992522 .00000425 00000-0 48755-4 0 9999
2 32791 097.5363 176.4491 0014729 055.2244 305.0358 14.90558723547985
RS-30
1 32953U 08025A 18158.62259566 .00000012 00000-0 18226-4 0 9997
2 32953 082.5040 018.6300 0018240 229.5967 130.3522 12.43083197455587
PRISM
1 33493U 09002B 18158.67176756 .00000782 00000-0 74834-4 0 9998
2 33493 98.1321 60.3986 0015054 352.5813 7.5191 14.96220856508922
NOAA-19
1 33591U 09005A 18158.57593892 .00000110 00000-0 85091-4 0 9995
2 33591 099.1411 136.4119 0013973 358.5197 001.5930 14.12283758480555
TISAT-1
1 36799U 10035E 18158.31676020 .00000503 00000-0 57192-4 0 9997
2 36799 098.1051 294.2715 0011178 237.1562 122.8580 14.90802844428486
JUGNU
1 37839U 11058B 18158.87389653 .00000298 00000-0 17080-4 0 9996
2 37839 19.9612 93.7198 0019128 144.0209 256.9839 14.12620739344051
SRMSAT
1 37841U 11058D 18158.33280350 .00000298 00000-0 18618-4 0 9992
2 37841 019.9707 146.0020 0011888 023.4647 115.9684 14.10607762343393
AO-71
1 37854U 11061E 18158.77648611 .00002069 00000-0 11462-3 0 9993
2 37854 101.7027 218.9257 0163750 101.4504 260.5148 15.05449590360410
HRBE
1 37855U 11061F 18158.43125357 .00002118 00000-0 11507-3 0 9999
2 37855 101.7163 215.9764 0176751 111.1550 250.8651 15.04425927359715
ALMASAT-1
1 38078U 12006B 18158.66229411 .00032273 39524-5 28630-3 0 9996
2 38078 69.4324 243.1128 0239046 121.0509 33.6638 15.40394060339184
HORYU-2
1 38340U 12025D 18158.51288357 .00000174 00000-0 33704-4 0 9993
2 38340 098.3663 179.9016 0010357 238.1008 121.9193 14.75557758315274
RS-40
1 38735U 12041C 18158.53249760 .00000024 00000-0 10601-3 0 9990
2 38735 082.4760 102.6392 0016714 339.7417 020.2998 12.42576421265806
BEESAT-3
1 39134U 13015E 18158.45716087 .00001065 00000-0 59848-4 0 9991
2 39134 64.8622 158.3836 0013167 213.7432 146.2858 15.19157252283425
BEESAT-2
1 39136U 13015G 18158.42940473 .00000674 00000-0 44789-4 0 9991
2 39136 64.8681 174.4628 0022512 238.8465 121.0453 15.16139537283119
ZACUBE-1
1 39417U 13066B 18158.51752378 .00000184 00000-0 29609-4 0 9994
2 39417 097.5876 187.6731 0058992 185.3273 174.7320 14.80937203245364
TRITON-1
1 39427U 13066M 18158.75558874 .00000196 00000-0 39697-4 0 9997
2 39427 97.6410 155.3064 0112576 289.8845 69.0259 14.67668882243190
GOMX-1
1 39430U 13066Q 18158.84002709 .00000204 00000-0 45987-4 0 9991
2 39430 97.6968 136.3864 0151661 0.6712 359.4665 14.59081209241793
LO-74
1 39440U 13066AA 18158.51193964 .00000206 00000-0 35876-4 0 9998
2 39440 097.6014 174.3233 0079337 226.1848 133.2785 14.75673944243291
AO-73
1 39444U 13066AE 18158.51856243 .00000265 00000-0 39057-4 0 9998
2 39444 097.5885 189.1870 0058251 180.7049 179.4093 14.81715964243639
SPROUT
1 39770U 14029E 18158.76823328 .00000658 00000-0 79894-4 0 9994
2 39770 97.8769 259.8932 0007735 233.2376 126.8129 14.86846372218964
DUCHIFAT-1
1 40021U 14033M 18158.59157147 .00000447 00000-0 51811-4 0 9995
2 40021 097.9165 077.2930 0012138 204.5659 155.4982 14.90308244215524
NANOSATCBR1
1 40024U 14033Q 18158.35919758 .00000288 00000-0 36155-4 0 9993
2 40024 097.9101 075.3232 0011366 207.2227 152.8396 14.89571217214893
EO-79
1 40025U 14033R 18158.73758449 .00000220 00000-0 29620-4 0 9999
2 40025 97.9060 74.1552 0011578 210.7727 149.2812 14.88715812215387
DTUSAT-2
1 40030U 14033W 18158.49839560 .00000241 00000-0 32089-4 0 9998
2 40030 097.9007 072.6247 0011098 205.9940 154.0720 14.88323968214780
EO-80
1 40032U 14033Y 18158.55592098 .00000234 00000-0 31362-4 0 9994
2 40032 097.9014 072.6850 0011048 206.3272 153.7384 14.88261266214771
ANTELSAT
1 40034U 14033AA 18158.63211621 .00000182 00000-0 34765-4 0 9997
2 40034 097.8125 035.6182 0057649 228.0259 131.6031 14.73924759212741
VELOX-1
1 40057U 14034E 18158.75955328 .00000358 00000-0 57934-4 0 9993
2 40057 98.2029 269.6441 0011036 6.1906 353.9441 14.77428187212253
DAURIA DX 1
1 40071U 14037C 18158.82638144 .00000135 00000-0 24874-4 0 9994
2 40071 98.3748 289.7706 0008488 0.4846 359.6374 14.81161585211610
UKUBE-1
1 40074U 14037F 18158.44096363 .00000366 00000-0 51388-4 0 9992
2 40074 098.3876 295.2068 0004469 005.1852 354.9408 14.83801815211853
HODOYOSHI-1
1 40299U 14070B 18158.54142360 .00000803 00000-0 37189-4 0 9997
2 40299 097.3768 240.4847 0011497 288.4764 196.6675 15.22899185199016
CHUBUSAT-1
1 40300U 14070C 18158.55868483 .00000734 00000-0 35504-4 0 9994
2 40300 097.3642 236.4602 0018622 298.8309 173.1445 15.21569918198810
QSAT-EOS
1 40301U 14070D 18158.41591890 .00001774 00000-0 73996-4 0 9997
2 40301 097.3584 237.5723 0024884 288.4379 191.4100 15.24739843198934
FIREBIRD FU3
1 40377U 15003B 18158.55753201 .00001396 00000-0 61205-4 0 9998
2 40377 099.0879 058.3961 0130087 262.7322 095.9105 15.17218606184852
FIREBIRD FU4
1 40378U 15003C 18158.48049484 .00001426 00000-0 62366-4 0 9995
2 40378 099.0881 058.3610 0130306 262.8824 095.7573 15.17228082184844
GRIFEX
1 40379U 15003D 18158.29851150 .00001084 00000-0 51845-4 0 9996
2 40379 99.0909 54.3352 0137280 276.0738 82.4861 15.14336581184602
NO-84
1 40654U 15025D 18158.31465168 .00011238 00000-0 17916-3 0 03186
2 40654 054.9914 080.9173 0161870 084.5460 277.4055 15.40380525054328
NO-83
1 40655U 15025E 18158.18494335 .00023294 00000-0 24301-3 0 03675
2 40655 054.9753 025.7718 0112213 116.4597 244.7923 15.56904213054723
DEORBITSAIL
1 40719U 15032E 18158.28977974 .00000382 00000-0 62080-4 0 9991
2 40719 097.9462 051.9671 0018006 080.0204 280.3037 14.76435316156711
NUDT-PHONESAT
1 40900U 15049B 18158.57064894 .00002188 00000-0 10067-3 0 9994
2 40900 097.4409 166.9338 0015205 066.5466 293.7366 15.21296711150456
XW-2A
1 40903U 15049E 18158.82311831 .00001934 00000-0 49656-4 0 9996
2 40903 97.3847 193.5850 0015850 67.5338 292.7584 15.40476573152364
XW-2C
1 40906U 15049H 18158.80856187 .00000644 00000-0 37730-4 0 9992
2 40906 97.4596 162.4720 0016635 65.3442 294.9520 15.15187370150070
XW-2D
1 40907U 15049J 18158.82798246 .00000687 00000-0 39845-4 0 9992
2 40907 97.4570 162.1889 0015969 63.4851 296.8017 15.15338268150085
LILACSAT-2
1 40908U 15049K 18158.55883407 .00000402 00000-0 25998-4 0 9996
2 40908 097.4682 161.2961 0017624 065.5652 294.7416 15.13509380149916
XW-2F
1 40910U 15049M 18158.84993470 .00001110 00000-0 60183-4 0 9995
2 40910 97.4571 163.5085 0016641 59.3745 300.9126 15.16528520150044
XW-2B
1 40911U 15049N 18158.84514369 .00000704 00000-0 40791-4 0 9993
2 40911 97.4605 162.7401 0015878 63.9906 296.2959 15.15282496149987
DCBB
1 40912U 15049P 18158.48030587 .00001674 00000-0 83595-4 0 9995
2 40912 097.4508 165.9457 0016839 049.4957 104.6224 15.18747355150194
